Location: Vassar Physics Lab
(41.6843°N, 73.8954°W)
Time: 22:03:46
(UTC-04:00)

CZ-4B DEB - Visible Passes

Search period start: 20 September 2014 00:00
Search period end: 30 September 2014 00:00
Orbit: 843 x 864 km, 98.8° (Epoch: 18 September)

Date Brightness Start Highest point End Pass type
(mag) Time Alt. Az. Time Alt. Az. Time Alt. Az.
20 Sep 6.5 03:14:11 10° NE 03:17:46 17° E 03:20:03 14° ESE visible
20 Sep 4.2 04:53:27 10° N 04:58:56 64° WNW 05:02:07 26° SW visible
21 Sep 6.7 03:04:01 10° ENE 03:06:43 14° E 03:08:55 11° ESE visible
21 Sep 4.1 04:42:30 10° NNE 04:48:03 79° WNW 04:50:58 30° SSW visible
22 Sep 7.0 02:54:43 10° ENE 02:55:38 10° E 02:56:34 10° E visible
22 Sep 4.2 04:31:34 10° NNE 04:37:09 84° ESE 04:39:50 33° S visible
22 Sep 5.9 06:14:12 10° NNW 06:17:10 15° WNW 06:20:08 10° W visible
23 Sep 4.4 04:20:41 10° NNE 04:26:14 68° ESE 04:28:41 34° S visible
23 Sep 5.7 06:02:46 10° NNW 06:06:24 18° WNW 06:10:03 10° WSW visible
24 Sep 4.8 04:09:51 10° NNE 04:15:18 55° E 04:17:32 34° SSE visible
24 Sep 5.5 05:51:29 10° NNW 05:55:38 22° WNW 05:59:36 11° WSW visible
25 Sep 5.2 03:59:03 10° NNE 04:04:21 44° E 04:06:24 31° SSE visible
25 Sep 5.2 05:40:17 10° N 05:44:50 27° WNW 05:48:27 14° WSW visible
26 Sep 5.5 03:48:18 10° NNE 03:53:22 35° E 03:55:14 28° SE visible
26 Sep 5.0 05:29:08 10° N 05:34:02 33° WNW 05:37:18 18° WSW visible
27 Sep 5.9 03:37:37 10° NE 03:42:23 28° E 03:44:05 24° SE visible
27 Sep 4.7 05:18:03 10° N 05:23:12 40° WNW 05:26:09 23° WSW visible
28 Sep 6.2 03:27:02 10° NE 03:31:22 23° E 03:32:56 20° ESE visible
28 Sep 4.4 05:07:00 10° N 05:12:21 49° WNW 05:14:59 28° SW visible
29 Sep 6.4 03:16:34 10° NE 03:20:20 18° E 03:21:46 17° ESE visible
29 Sep 4.2 04:56:00 10° N 05:01:29 61° WNW 05:03:50 34° SW visible
